| time (UTC) | temp F | wind direction | speed MPH | gust MPH | rain 1hr in | rain 24hr in | rain mn in | humidity % | barometer mb |
| 20260904164508 | 60 | 265 | 0.0 | 0.0 | 0.00 | 0.00 | 0.17 | 75 | 995.7 |
| 20260904163012 | 61 | 138 | 0.0 | 0.0 | 0.00 | 0.00 | 0.17 | 73 | 995.9 |
| 20260904161512 | 63 | 302 | 0.0 | 0.0 | 0.00 | 0.00 | 0.17 | 69 | 995.9 |
| 20260904160011 | 63 | 253 | 0.0 | 0.0 | 0.00 | 0.00 | 0.17 | 72 | 995.9 |
| 20260904154510 | 63 | 325 | 0.0 | 0.0 | 0.00 | 0.00 | 0.17 | 73 | 995.9 |
| 20260904153011 | 63 | 187 | 0.0 | 0.0 | 0.00 | 0.00 | 0.17 | 71 | 996.0 |
| 20260904151507 | 63 | 298 | 0.0 | 0.0 | 0.00 | 0.00 | 0.17 | 70 | 996.0 |
| 20260904150006 | 63 | 310 | 0.0 | 0.0 | 0.00 | 0.00 | 0.17 | 71 | 996.0 |
| 20260904144505 | 64 | 237 | 0.0 | 0.0 | 0.00 | 0.00 | 0.17 | 68 | 996.0 |
| 20260904143008 | 64 | 204 | 0.0 | 0.0 | 0.00 | 0.00 | 0.17 | 69 | 996.0 |
| 20260904141506 | 63 | 287 | 0.0 | 0.0 | 0.00 | 0.00 | 0.17 | 70 | 996.2 |
| 20260904140005 | 63 | 281 | 0.0 | 0.0 | 0.00 | 0.00 | 0.17 | 73 | 996.3 |
| 20260904134505 | 62 | 360 | 0.0 | 0.0 | 0.00 | 0.00 | 0.17 | 73 | 996.3 |
| 20260904133003 | 62 | 360 | 0.0 | 0.0 | 0.00 | 0.00 | 0.17 | 75 | 996.5 |
| 20260904131502 | 62 | 219 | 0.0 | 0.0 | 0.00 | 0.00 | 0.17 | 75 | 996.6 |
| 20260904130003 | 63 | 360 | 0.0 | 0.0 | 0.00 | 0.00 | 0.17 | 75 | 996.8 |
| 20260904124501 | 63 | 228 | 0.0 | 0.0 | 0.00 | 0.00 | 0.17 | 74 | 996.7 |
| 20260904123002 | 64 | 169 | 0.0 | 0.0 | 0.00 | 0.00 | 0.17 | 74 | 996.8 |
| 20260904121501 | 64 | 261 | 0.0 | 0.0 | 0.00 | 0.00 | 0.17 | 74 | 996.8 |
| 20260904120106 | 63 | 244 | 0.0 | 0.0 | 0.00 | 0.00 | 0.17 | 74 | 997.2 |
| 20260904114558 | 63 | 248 | 0.0 | 0.0 | 0.00 | 0.00 | 0.17 | 73 | 997.3 |
| 20260904113058 | 62 | 360 | 0.0 | 0.0 | 0.00 | 0.00 | 0.17 | 74 | 997.3 |
| 20260904111558 | 62 | 267 | 0.0 | 0.0 | 0.00 | 0.00 | 0.17 | 73 | 997.3 |
| 20260904110057 | 63 | 253 | 0.0 | 0.0 | 0.00 | 0.00 | 0.17 | 74 | 997.2 |
| 20260904104553 | 62 | 360 | 0.0 | 0.0 | 0.00 | 0.00 | 0.17 | 78 | 997.4 |
| 20260904103051 | 61 | 224 | 0.0 | 0.0 | 0.00 | 0.00 | 0.17 | 80 | 997.5 |
| 20260904101551 | 60 | 244 | 0.0 | 0.0 | 0.00 | 0.00 | 0.17 | 79 | 997.6 |
| 20260904100053 | 60 | 210 | 0.0 | 0.0 | 0.00 | 0.00 | 0.17 | 79 | 997.7 |
| 20260904094548 | 60 | 298 | 0.0 | 0.0 | 0.00 | 0.00 | 0.17 | 81 | 997.9 |
| 20260904093053 | 60 | 213 | 0.0 | 0.0 | 0.00 | 0.00 | 0.17 | 80 | 997.9 |
| 20260904091553 | 60 | 246 | 0.0 | 0.0 | 0.00 | 0.00 | 0.17 | 82 | 998.0 |
| 20260904090045 | 60 | 253 | 0.0 | 0.0 | 0.00 | 0.00 | 0.17 | 83 | 998.0 |
| 20260904084545 | 60 | 230 | 0.0 | 0.0 | 0.00 | 0.00 | 0.17 | 84 | 998.1 |
| 20260904083045 | 60 | 360 | 0.0 | 0.0 | 0.00 | 0.00 | 0.17 | 86 | 998.1 |
| 20260904081543 | 59 | 205 | 0.0 | 0.0 | 0.00 | 0.00 | 0.17 | 87 | 998.0 |
| 20260904080042 | 59 | 271 | 0.0 | 0.0 | 0.00 | 0.00 | 0.17 | 88 | 998.0 |
| 20260904074558 | 58 | 265 | 0.0 | 0.0 | 0.00 | 0.00 | 0.17 | 89 | 998.1 |
| 20260904073040 | 58 | 233 | 0.0 | 0.0 | 0.00 | 0.00 | 0.17 | 89 | 998.1 |
| 20260904071558 | 57 | 228 | 0.0 | 0.0 | 0.00 | 0.00 | 0.17 | 91 | 998.2 |
| 20260904070038 | 57 | 236 | 0.0 | 0.0 | 0.00 | 0.00 | 0.17 | 91 | 998.2 |
| 20260904064541 | 57 | 192 | 0.0 | 0.0 | 0.00 | 0.00 | 0.17 | 91 | 998.4 |
| 20260904063046 | 57 | 221 | 0.0 | 0.0 | 0.00 | 0.00 | 0.17 | 92 | 998.6 |
| 20260904061534 | 56 | 209 | 0.0 | 0.0 | 0.00 | 0.00 | 0.17 | 92 | 998.7 |
| 20260904060034 | 56 | 256 | 0.0 | 0.0 | 0.00 | 0.00 | 0.17 | 92 | 998.8 |
| 20260904054536 | 56 | 360 | 0.0 | 0.0 | 0.00 | 0.00 | 0.17 | 92 | 998.8 |
| 20260904053037 | 56 | 173 | 0.0 | 0.0 | 0.00 | 0.00 | 0.17 | 92 | 998.8 |
| 20260904051534 | 56 | 232 | 0.0 | 0.0 | 0.00 | 0.00 | 0.17 | 92 | 998.9 |
| 20260904050034 | 56 | 239 | 0.0 | 0.0 | 0.00 | 0.00 | 0.17 | 92 | 999.0 |
| 20260904044532 | 56 | 205 | 0.0 | 0.0 | 0.00 | 0.00 | 0.17 | 93 | 998.8 |
| 20260904043033 | 57 | 270 | 0.0 | 0.0 | 0.00 | 0.00 | 0.17 | 93 | 998.8 |
| 20260904041533 | 57 | 227 | 0.0 | 0.0 | 0.00 | 0.00 | 0.17 | 93 | 998.8 |
| 20260904040031 | 57 | 233 | 0.0 | 0.0 | 0.00 | 0.00 | 0.17 | 93 | 998.8 |
| 20260904034533 | 57 | 246 | 0.0 | 0.0 | 0.00 | 0.00 | 0.17 | 93 | 998.8 |
| 20260904033029 | 57 | 233 | 0.0 | 0.0 | 0.00 | 0.00 | 0.17 | 93 | 998.7 |
| 20260904031528 | 57 | 207 | 0.0 | 0.0 | 0.00 | 0.00 | 0.17 | 93 | 998.8 |
| 20260904030035 | 58 | 360 | 0.0 | 0.0 | 0.00 | 0.00 | 0.17 | 93 | 998.9 |
| 20260904024526 | 58 | 272 | 0.0 | 0.0 | 0.00 | 0.00 | 0.17 | 93 | 999.0 |
| 20260904023028 | 58 | 360 | 0.0 | 0.0 | 0.00 | 0.00 | 0.16 | 93 | 999.1 |
| 20260904021534 | 58 | 234 | 0.0 | 0.0 | 0.00 | 0.00 | 0.16 | 93 | 999.3 |
| 20260904020027 | 58 | 226 | 0.0 | 0.0 | 0.00 | 0.00 | 0.16 | 93 | 999.3 |
| 20260904014525 | 58 | 279 | 0.0 | 0.0 | 0.00 | 0.00 | 0.16 | 93 | 999.3 |
| 20260904013022 | 58 | 203 | 0.0 | 0.0 | 0.00 | 0.00 | 0.15 | 93 | 999.6 |
| 20260904011522 | 58 | 213 | 0.0 | 0.0 | 0.00 | 0.00 | 0.15 | 93 | 999.7 |
| 20260904010022 | 58 | 209 | 0.0 | 0.0 | 0.00 | 0.00 | 0.15 | 93 | 999.6 |
| 20260904004519 | 58 | 186 | 0.0 | 0.0 | 0.00 | 0.00 | 0.15 | 93 | 999.9 |
| 20260904003023 | 58 | 250 | 0.0 | 0.0 | 0.00 | 0.00 | 0.15 | 92 | 1000.5 |
| 20260904001517 | 58 | 138 | 0.0 | 0.0 | 0.00 | 0.00 | 0.14 | 92 | 1000.7 |
| 20260904000017 | 58 | 105 | 0.0 | 0.0 | 0.00 | 0.00 | 0.13 | 92 | 1000.7 |
| 20260903234514 | 58 | 128 | 0.0 | 0.0 | 0.00 | 0.00 | 0.12 | 92 | 1000.9 |
| 20260903233014 | 58 | 155 | 0.0 | 0.0 | 0.00 | 0.00 | 0.08 | 92 | 1001.0 |
| 20260903231510 | 58 | 111 | 0.0 | 0.0 | 0.00 | 0.00 | 0.03 | 91 | 1001.1 |
| 20260903230013 | 58 | 133 | 0.0 | 0.0 | 0.00 | 0.00 | 0.02 | 91 | 1001.1 |
| 20260903224508 | 58 | 129 | 0.0 | 0.0 | 0.00 | 0.00 | 0.00 | 90 | 1001.4 |
| 20260903223010 | 58 | 123 | 0.0 | 0.0 | 0.00 | 0.00 | 0.00 | 90 | 1001.8 |
| 20260903221521 | 58 | 113 | 0.0 | 0.0 | 0.00 | 0.00 | 0.00 | 90 | 1001.9 |
| 20260903220007 | 58 | 130 | 0.0 | 0.0 | 0.00 | 0.00 | 0.00 | 90 | 1002.0 |
| 20260903214506 | 58 | 135 | 0.0 | 0.0 | 0.00 | 0.00 | 0.00 | 89 | 1001.9 |
| 20260903213010 | 58 | 136 | 0.0 | 0.0 | 0.00 | 0.00 | 0.00 | 89 | 1002.1 |
| 20260903211502 | 58 | 117 | 0.0 | 0.0 | 0.00 | 0.00 | 0.00 | 89 | 1002.3 |
| 20260903210001 | 58 | 117 | 0.0 | 0.0 | 0.00 | 0.00 | 0.00 | 89 | 1002.5 |
| 20260903204604 | 58 | 117 | 0.0 | 0.0 | 0.00 | 0.00 | 0.00 | 88 | 1002.7 |
| 20260903203001 | 58 | 118 | 0.0 | 0.0 | 0.00 | 0.00 | 0.00 | 88 | 1002.9 |
| 20260903201601 | 58 | 117 | 0.0 | 0.0 | 0.00 | 0.00 | 0.00 | 88 | 1002.7 |
| 20260903200100 | 58 | 117 | 0.0 | 0.0 | 0.00 | 0.00 | 0.00 | 88 | 1002.8 |
| 20260903194559 | 58 | 190 | 0.0 | 0.0 | 0.00 | 0.00 | 0.00 | 87 | 1002.6 |
| 20260903193057 | 58 | 188 | 0.0 | 0.0 | 0.00 | 0.00 | 0.00 | 87 | 1003.0 |
| 20260903191556 | 58 | 188 | 0.0 | 0.0 | 0.00 | 0.00 | 0.00 | 86 | 1003.2 |
| 20260903190056 | 59 | 189 | 0.0 | 0.0 | 0.00 | 0.00 | 0.00 | 86 | 1003.2 |
| 20260903184554 | 59 | 190 | 0.0 | 0.0 | 0.00 | 0.00 | 0.00 | 85 | 1003.3 |
| 20260903183054 | 59 | 190 | 0.0 | 0.0 | 0.00 | 0.00 | 0.00 | 85 | 1003.3 |
| 20260903181554 | 59 | 188 | 0.0 | 0.0 | 0.00 | 0.00 | 0.00 | 84 | 1003.3 |
| 20260903180112 | 60 | 187 | 0.0 | 0.0 | 0.00 | 0.00 | 0.00 | 83 | 1003.5 |
| 20260903174552 | 60 | 188 | 0.0 | 0.0 | 0.00 | 0.00 | 0.00 | 82 | 1003.5 |
| 20260903173052 | 61 | 188 | 0.0 | 0.0 | 0.00 | 0.00 | 0.00 | 81 | 1003.6 |
| 20260903171554 | 61 | 189 | 0.0 | 0.0 | 0.00 | 0.00 | 0.00 | 81 | 1003.4 |
| 20260903170049 | 61 | 188 | 0.0 | 0.0 | 0.00 | 0.00 | 0.00 | 80 | 1003.6 |